Location: Augirein
(42.9320°N, 0.9181°E)
Time: 14:22:27
(UTC+00:00)

IDEFIX/ARIANE 42P - Pass Details

Date: 20 June 2021
Orbit: 784 x 803 km, 98.4° (Epoch: 31 July)

Event Time Altitude Azimuth Distance (km) Brightness Sun altitude
Rises 03:20:33 0° 6° (N) 3,315 6.7 -8.9°
Reaches altitude 10° 03:23:00 10° 360° (N) 2,377 5.7 -8.6°
Maximum altitude 03:27:54 42° 291° (WNW) 1,132 3.2 -7.9°
Drops below altitude 10° 03:32:45 10° 222° (SW) 2,351 4.3 -7.3°
Enters shadow 03:33:05 - 221° (SW) 2,476 4.5 -7.2°
